Year,Month,Day,Hour,Minute,Value (Times are PST for temperature in C)
2014,10,07,00,00,14.70
2014,10,07,00,01,14.70
2014,10,07,00,02,14.60
2014,10,07,00,03,14.60
2014,10,07,00,04,14.60
2014,10,07,00,05,14.60
2014,10,07,00,06,14.60
2014,10,07,00,07,14.60
2014,10,07,00,08,14.60
2014,10,07,00,09,14.60
2014,10,07,00,10,14.60
2014,10,07,00,11,14.50
2014,10,07,00,12,14.50
2014,10,07,00,13,14.50
2014,10,07,00,14,14.40
2014,10,07,00,15,14.40
2014,10,07,00,16,14.40
2014,10,07,00,17,14.40
2014,10,07,00,18,14.40
2014,10,07,00,19,14.40
2014,10,07,00,20,14.40
2014,10,07,00,21,14.40
2014,10,07,00,22,14.30
2014,10,07,00,23,14.30
2014,10,07,00,24,14.30
2014,10,07,00,25,14.30
2014,10,07,00,26,14.20
2014,10,07,00,27,14.20
2014,10,07,00,28,14.20
2014,10,07,00,29,14.20
2014,10,07,00,30,14.10
2014,10,07,00,31,14.10
2014,10,07,00,32,14.10
2014,10,07,00,33,14.10
2014,10,07,00,34,14.10
2014,10,07,00,35,14.10
2014,10,07,00,36,14.10
2014,10,07,00,37,14.10
2014,10,07,00,38,14.10
2014,10,07,00,39,14.10
2014,10,07,00,40,14.10
2014,10,07,00,41,14.10
2014,10,07,00,42,14.10
2014,10,07,00,43,14.10
2014,10,07,00,44,14.10
2014,10,07,00,45,14.00
2014,10,07,00,46,14.00
2014,10,07,00,47,14.00
2014,10,07,00,48,14.00
2014,10,07,00,49,13.90
2014,10,07,00,50,13.90
2014,10,07,00,51,13.90
2014,10,07,00,52,13.90
2014,10,07,00,53,13.90
2014,10,07,00,54,13.90
2014,10,07,00,55,13.80
2014,10,07,00,56,13.80
2014,10,07,00,57,13.80
2014,10,07,00,58,13.80
2014,10,07,00,59,13.80
2014,10,07,01,00,13.80
2014,10,07,01,01,13.80
2014,10,07,01,02,13.70
2014,10,07,01,03,13.70
2014,10,07,01,04,13.70
2014,10,07,01,05,13.60
2014,10,07,01,06,13.60
2014,10,07,01,07,13.60
2014,10,07,01,08,13.60
2014,10,07,01,09,13.60
2014,10,07,01,10,13.50
2014,10,07,01,11,13.50
2014,10,07,01,12,13.50
2014,10,07,01,13,13.50
2014,10,07,01,14,13.40
2014,10,07,01,15,13.40
2014,10,07,01,16,13.40
2014,10,07,01,17,13.40
2014,10,07,01,18,13.40
2014,10,07,01,19,13.40
2014,10,07,01,20,13.40
2014,10,07,01,21,13.30
2014,10,07,01,22,13.30
2014,10,07,01,23,13.30
2014,10,07,01,24,13.30
2014,10,07,01,25,13.30
2014,10,07,01,26,13.30
2014,10,07,01,27,13.30
2014,10,07,01,28,13.30
2014,10,07,01,29,13.30
2014,10,07,01,30,13.30
2014,10,07,01,31,13.30
2014,10,07,01,32,13.30
2014,10,07,01,33,13.30
2014,10,07,01,34,13.30
2014,10,07,01,35,13.20
2014,10,07,01,36,13.20
2014,10,07,01,37,13.20
2014,10,07,01,38,13.10
2014,10,07,01,39,13.10
2014,10,07,01,40,13.10
2014,10,07,01,41,13.10
2014,10,07,01,42,13.00
2014,10,07,01,43,13.00
2014,10,07,01,44,13.00
2014,10,07,01,45,12.90
2014,10,07,01,46,12.90
2014,10,07,01,47,12.90
2014,10,07,01,48,12.90
2014,10,07,01,49,12.90
2014,10,07,01,50,12.80
2014,10,07,01,51,12.80
2014,10,07,01,52,12.80
2014,10,07,01,53,12.80
2014,10,07,01,54,12.80
2014,10,07,01,55,12.80
2014,10,07,01,56,12.80
2014,10,07,01,57,12.80
2014,10,07,01,58,12.80
2014,10,07,01,59,12.80
2014,10,07,02,00,12.80
2014,10,07,02,01,12.80
2014,10,07,02,02,12.80
2014,10,07,02,03,12.80
2014,10,07,02,04,12.80
2014,10,07,02,05,12.80
2014,10,07,02,06,12.80
2014,10,07,02,07,12.80
2014,10,07,02,08,12.80
2014,10,07,02,09,12.70
2014,10,07,02,10,12.70
2014,10,07,02,11,12.70
2014,10,07,02,12,12.70
2014,10,07,02,13,12.70
2014,10,07,02,14,12.60
2014,10,07,02,15,12.60
2014,10,07,02,16,12.60
2014,10,07,02,17,12.60
2014,10,07,02,18,12.60
2014,10,07,02,19,12.60
2014,10,07,02,20,12.60
2014,10,07,02,21,12.60
2014,10,07,02,22,12.60
2014,10,07,02,23,12.60
2014,10,07,02,24,12.60
2014,10,07,02,25,12.60
2014,10,07,02,26,12.60
2014,10,07,02,27,12.60
2014,10,07,02,28,12.60
2014,10,07,02,29,12.60
2014,10,07,02,30,12.60
2014,10,07,02,31,12.50
2014,10,07,02,32,12.50
2014,10,07,02,33,12.50
2014,10,07,02,34,12.50
2014,10,07,02,35,12.50
2014,10,07,02,36,12.50
2014,10,07,02,37,12.50
2014,10,07,02,38,12.50
2014,10,07,02,39,12.50
2014,10,07,02,40,12.50
2014,10,07,02,41,12.50
2014,10,07,02,42,12.40
2014,10,07,02,43,12.40
2014,10,07,02,44,12.40
2014,10,07,02,45,12.30
2014,10,07,02,46,12.20
2014,10,07,02,47,12.20
2014,10,07,02,48,12.20
2014,10,07,02,49,12.10
2014,10,07,02,50,12.10
2014,10,07,02,51,12.10
2014,10,07,02,52,12.00
2014,10,07,02,53,12.00
2014,10,07,02,54,12.00
2014,10,07,02,55,12.00
2014,10,07,02,56,12.00
2014,10,07,02,57,11.90
2014,10,07,02,58,11.90
2014,10,07,02,59,11.90
2014,10,07,03,00,11.90
2014,10,07,03,01,11.90
2014,10,07,03,02,11.90
2014,10,07,03,03,11.90
2014,10,07,03,04,12.00
2014,10,07,03,05,12.00
2014,10,07,03,06,12.00
2014,10,07,03,07,12.00
2014,10,07,03,08,12.00
2014,10,07,03,09,12.00
2014,10,07,03,10,11.90
2014,10,07,03,11,11.90
2014,10,07,03,12,11.90
2014,10,07,03,13,11.90
2014,10,07,03,14,11.90
2014,10,07,03,15,11.90
2014,10,07,03,16,11.90
2014,10,07,03,17,11.90
2014,10,07,03,18,11.80
2014,10,07,03,19,11.80
2014,10,07,03,20,11.70
2014,10,07,03,21,11.70
2014,10,07,03,22,11.70
2014,10,07,03,23,11.70
2014,10,07,03,24,11.70
2014,10,07,03,25,11.70
2014,10,07,03,26,11.70
2014,10,07,03,27,11.70
2014,10,07,03,28,11.70
2014,10,07,03,29,11.70
2014,10,07,03,30,11.70
2014,10,07,03,31,11.60
2014,10,07,03,32,11.60
2014,10,07,03,33,11.60
2014,10,07,03,34,11.60
2014,10,07,03,35,11.60
2014,10,07,03,36,11.60
2014,10,07,03,37,11.60
2014,10,07,03,38,11.60
2014,10,07,03,39,11.60
2014,10,07,03,40,11.60
2014,10,07,03,41,11.60
2014,10,07,03,42,11.60
2014,10,07,03,43,11.70
2014,10,07,03,44,11.70
2014,10,07,03,45,11.70
2014,10,07,03,46,11.70
2014,10,07,03,47,11.70
2014,10,07,03,48,11.70
2014,10,07,03,49,11.70
2014,10,07,03,50,11.70
2014,10,07,03,51,11.70
2014,10,07,03,52,11.70
2014,10,07,03,53,11.70
2014,10,07,03,54,11.70
2014,10,07,03,55,11.70
2014,10,07,03,56,11.70
2014,10,07,03,57,11.60
2014,10,07,03,58,11.60
2014,10,07,03,59,11.60
2014,10,07,04,00,11.60
2014,10,07,04,01,11.60
2014,10,07,04,02,11.60
2014,10,07,04,03,11.60
2014,10,07,04,04,11.60
2014,10,07,04,05,11.50
2014,10,07,04,06,11.50
2014,10,07,04,07,11.40
2014,10,07,04,08,11.40
2014,10,07,04,09,11.40
2014,10,07,04,10,11.30
2014,10,07,04,11,11.30
2014,10,07,04,12,11.30
2014,10,07,04,13,11.30
2014,10,07,04,14,11.30
2014,10,07,04,15,11.30
2014,10,07,04,16,11.20
2014,10,07,04,17,11.20
2014,10,07,04,18,11.20
2014,10,07,04,19,11.20
2014,10,07,04,20,11.20
2014,10,07,04,21,11.20
2014,10,07,04,22,11.20
2014,10,07,04,23,11.20
2014,10,07,04,24,11.20
2014,10,07,04,25,11.10
2014,10,07,04,26,11.10
2014,10,07,04,27,11.10
2014,10,07,04,28,11.10
2014,10,07,04,29,11.10
2014,10,07,04,30,11.00
2014,10,07,04,31,11.00
2014,10,07,04,32,11.00
2014,10,07,04,33,11.00
2014,10,07,04,34,10.90
2014,10,07,04,35,10.90
2014,10,07,04,36,10.90
2014,10,07,04,37,10.90
2014,10,07,04,38,10.80
2014,10,07,04,39,10.80
2014,10,07,04,40,10.80
2014,10,07,04,41,10.80
2014,10,07,04,42,10.80
2014,10,07,04,43,10.80
2014,10,07,04,44,10.80
2014,10,07,04,45,10.80
2014,10,07,04,46,10.80
2014,10,07,04,47,10.80
2014,10,07,04,48,10.80
2014,10,07,04,49,10.80
2014,10,07,04,50,10.80
2014,10,07,04,51,10.80
2014,10,07,04,52,10.80
2014,10,07,04,53,10.80
2014,10,07,04,54,10.80
2014,10,07,04,55,10.80
2014,10,07,04,56,10.80
2014,10,07,04,57,10.80
2014,10,07,04,58,10.80
2014,10,07,04,59,10.80
2014,10,07,05,00,10.80
2014,10,07,05,01,10.80
2014,10,07,05,02,10.80
2014,10,07,05,03,10.80
2014,10,07,05,04,10.80
2014,10,07,05,05,10.80
2014,10,07,05,06,10.80
2014,10,07,05,07,10.80
2014,10,07,05,08,10.80
2014,10,07,05,09,10.80
2014,10,07,05,10,10.80
2014,10,07,05,11,10.80
2014,10,07,05,12,10.90
2014,10,07,05,13,10.90
2014,10,07,05,14,10.90
2014,10,07,05,15,11.00
2014,10,07,05,16,11.00
2014,10,07,05,17,11.10
2014,10,07,05,18,11.10
2014,10,07,05,19,11.10
2014,10,07,05,20,11.10
2014,10,07,05,21,11.10
2014,10,07,05,22,11.10
2014,10,07,05,23,11.00
2014,10,07,05,24,11.00
2014,10,07,05,25,10.90
2014,10,07,05,26,10.80
2014,10,07,05,27,10.80
2014,10,07,05,28,10.80
2014,10,07,05,29,10.70
2014,10,07,05,30,10.70
2014,10,07,05,31,10.70
2014,10,07,05,32,10.60
2014,10,07,05,33,10.60
2014,10,07,05,34,10.60
2014,10,07,05,35,10.60
2014,10,07,05,36,10.60
2014,10,07,05,37,10.60
2014,10,07,05,38,10.60
2014,10,07,05,39,10.60
2014,10,07,05,40,10.60
2014,10,07,05,41,10.60
2014,10,07,05,42,10.60
2014,10,07,05,43,10.60
2014,10,07,05,44,10.60
2014,10,07,05,45,10.70
2014,10,07,05,46,10.70
2014,10,07,05,47,10.70
2014,10,07,05,48,10.70
2014,10,07,05,49,10.80
2014,10,07,05,50,10.80
2014,10,07,05,51,10.80
2014,10,07,05,52,10.80
2014,10,07,05,53,10.80
2014,10,07,05,54,10.80
2014,10,07,05,55,10.80
2014,10,07,05,56,10.80
2014,10,07,05,57,10.80
2014,10,07,05,58,10.80
2014,10,07,05,59,10.70
2014,10,07,06,00,10.70
2014,10,07,06,01,10.70
2014,10,07,06,02,10.70
2014,10,07,06,03,10.70
2014,10,07,06,04,10.70
2014,10,07,06,05,10.60
2014,10,07,06,06,10.60
2014,10,07,06,07,10.60
2014,10,07,06,08,10.60
2014,10,07,06,09,10.60
2014,10,07,06,10,10.50
2014,10,07,06,11,10.50
2014,10,07,06,12,10.50
2014,10,07,06,13,10.40
2014,10,07,06,14,10.40
2014,10,07,06,15,10.40
2014,10,07,06,16,10.40
2014,10,07,06,17,10.40
2014,10,07,06,18,10.40
2014,10,07,06,19,10.40
2014,10,07,06,20,10.40
2014,10,07,06,21,10.30
2014,10,07,06,22,10.30
2014,10,07,06,23,10.30
2014,10,07,06,24,10.30
2014,10,07,06,25,10.30
2014,10,07,06,26,10.30
2014,10,07,06,27,10.30
2014,10,07,06,28,10.20
2014,10,07,06,29,10.20
2014,10,07,06,30,10.20
2014,10,07,06,31,10.20
2014,10,07,06,32,10.20
2014,10,07,06,33,10.20
2014,10,07,06,34,10.20
2014,10,07,06,35,10.20
2014,10,07,06,36,10.20
2014,10,07,06,37,10.20
2014,10,07,06,38,10.20
2014,10,07,06,39,10.20
2014,10,07,06,40,10.30
2014,10,07,06,41,10.30
2014,10,07,06,42,10.30
2014,10,07,06,43,10.40
2014,10,07,06,44,10.40
2014,10,07,06,45,10.40
2014,10,07,06,46,10.40
2014,10,07,06,47,10.40
2014,10,07,06,48,10.50
2014,10,07,06,49,10.50
2014,10,07,06,50,10.50
2014,10,07,06,51,10.50
2014,10,07,06,52,10.50
2014,10,07,06,53,10.50
2014,10,07,06,54,10.40
2014,10,07,06,55,10.40
2014,10,07,06,56,10.40
2014,10,07,06,57,10.40
2014,10,07,06,58,10.40
2014,10,07,06,59,10.30
2014,10,07,07,00,10.30
2014,10,07,07,01,10.30
2014,10,07,07,02,10.30
2014,10,07,07,03,10.20
2014,10,07,07,04,10.20
2014,10,07,07,05,10.20
2014,10,07,07,06,10.20
2014,10,07,07,07,10.20
2014,10,07,07,08,10.20
2014,10,07,07,09,10.20
2014,10,07,07,10,10.10
2014,10,07,07,11,10.10
2014,10,07,07,12,10.10
2014,10,07,07,13,10.10
2014,10,07,07,14,10.10
2014,10,07,07,15,10.10
2014,10,07,07,16,10.10
2014,10,07,07,17,10.10
2014,10,07,07,18,10.10
2014,10,07,07,19,10.10
2014,10,07,07,20,10.10
2014,10,07,07,21,10.10
2014,10,07,07,22,10.10
2014,10,07,07,23,10.00
2014,10,07,07,24,10.00
2014,10,07,07,25,10.00
2014,10,07,07,26,10.00
2014,10,07,07,27,10.00
2014,10,07,07,28,10.00
2014,10,07,07,29,10.00
2014,10,07,07,30,10.00
2014,10,07,07,31,10.00
2014,10,07,07,32,10.00
2014,10,07,07,33,10.00
2014,10,07,07,34,10.00
2014,10,07,07,35,10.00
2014,10,07,07,36,10.00
2014,10,07,07,37,10.00
2014,10,07,07,38,10.00
2014,10,07,07,39,9.90
2014,10,07,07,40,9.90
2014,10,07,07,41,9.90
2014,10,07,07,42,9.90
2014,10,07,07,43,10.00
2014,10,07,07,44,10.00
2014,10,07,07,45,10.00
2014,10,07,07,46,10.00
2014,10,07,07,47,10.10
2014,10,07,07,48,10.10
2014,10,07,07,49,10.10
2014,10,07,07,50,10.10
2014,10,07,07,51,10.10
2014,10,07,07,52,10.10
2014,10,07,07,53,10.10
2014,10,07,07,54,10.20
2014,10,07,07,55,10.20
2014,10,07,07,56,10.20
2014,10,07,07,57,10.20
2014,10,07,07,58,10.20
2014,10,07,07,59,10.20
2014,10,07,08,00,10.20
2014,10,07,08,01,10.20
2014,10,07,08,02,10.20
2014,10,07,08,03,10.20
2014,10,07,08,04,10.30
2014,10,07,08,05,10.30
2014,10,07,08,06,10.40
2014,10,07,08,07,10.40
2014,10,07,08,08,10.40
2014,10,07,08,09,10.50
2014,10,07,08,10,10.50
2014,10,07,08,11,10.50
2014,10,07,08,12,10.60
2014,10,07,08,13,10.60
2014,10,07,08,14,10.60
2014,10,07,08,15,10.60
2014,10,07,08,16,10.60
2014,10,07,08,17,10.60
2014,10,07,08,18,10.60
2014,10,07,08,19,10.60
2014,10,07,08,20,10.70
2014,10,07,08,21,10.70
2014,10,07,08,22,10.70
2014,10,07,08,23,10.70
2014,10,07,08,24,10.70
2014,10,07,08,25,10.70
2014,10,07,08,26,10.80
2014,10,07,08,27,10.80
2014,10,07,08,28,10.80
2014,10,07,08,29,10.80
2014,10,07,08,30,10.80
2014,10,07,08,31,10.90
2014,10,07,08,32,10.90
2014,10,07,08,33,10.90
2014,10,07,08,34,11.00
2014,10,07,08,35,11.00
2014,10,07,08,36,11.10
2014,10,07,08,37,11.20
2014,10,07,08,38,11.20
2014,10,07,08,39,11.30
2014,10,07,08,40,11.30
2014,10,07,08,41,11.40
2014,10,07,08,42,11.40
2014,10,07,08,43,11.50
2014,10,07,08,44,11.60
2014,10,07,08,45,11.70
2014,10,07,08,46,11.70
2014,10,07,08,47,11.80
2014,10,07,08,48,11.80
2014,10,07,08,49,11.80
2014,10,07,08,50,11.90
2014,10,07,08,51,11.90
2014,10,07,08,52,12.00
2014,10,07,08,53,12.00
2014,10,07,08,54,12.00
2014,10,07,08,55,12.10
2014,10,07,08,56,12.10
2014,10,07,08,57,12.20
2014,10,07,08,58,12.20
2014,10,07,08,59,12.20
2014,10,07,09,00,12.30
2014,10,07,09,01,12.30
2014,10,07,09,02,12.30
2014,10,07,09,03,12.40
2014,10,07,09,04,12.40
2014,10,07,09,05,12.50
2014,10,07,09,06,12.50
2014,10,07,09,07,12.50
2014,10,07,09,08,12.60
2014,10,07,09,09,12.60
2014,10,07,09,10,12.70
2014,10,07,09,11,12.70
2014,10,07,09,12,12.70
2014,10,07,09,13,12.80
2014,10,07,09,14,12.80
2014,10,07,09,15,12.90
2014,10,07,09,16,12.90
2014,10,07,09,17,13.00
2014,10,07,09,18,13.00
2014,10,07,09,19,13.10
2014,10,07,09,20,13.10
2014,10,07,09,21,13.20
2014,10,07,09,22,13.20
2014,10,07,09,23,13.30
2014,10,07,09,24,13.30
2014,10,07,09,25,13.40
2014,10,07,09,26,13.40
2014,10,07,09,27,13.50
2014,10,07,09,28,13.50
2014,10,07,09,29,13.60
2014,10,07,09,30,13.60
2014,10,07,09,31,13.70
2014,10,07,09,32,13.70
2014,10,07,09,33,13.80
2014,10,07,09,34,13.80
2014,10,07,09,35,13.80
2014,10,07,09,36,13.90
2014,10,07,09,37,13.90
2014,10,07,09,38,14.00
2014,10,07,09,39,14.10
2014,10,07,09,40,14.10
2014,10,07,09,41,14.20
2014,10,07,09,42,14.20
2014,10,07,09,43,14.30
2014,10,07,09,44,14.40
2014,10,07,09,45,14.50
2014,10,07,09,46,14.60
2014,10,07,09,47,14.70
2014,10,07,09,48,14.80
2014,10,07,09,49,14.90
2014,10,07,09,50,15.00
2014,10,07,09,51,15.10
2014,10,07,09,52,15.20
2014,10,07,09,53,15.30
2014,10,07,09,54,15.40
2014,10,07,09,55,15.50
2014,10,07,09,56,15.60
2014,10,07,09,57,15.70
2014,10,07,09,58,15.80
2014,10,07,09,59,15.90
2014,10,07,10,00,16.00
2014,10,07,10,01,16.00
2014,10,07,10,02,16.10
2014,10,07,10,03,16.20
2014,10,07,10,04,16.20
2014,10,07,10,05,16.30
2014,10,07,10,06,16.40
2014,10,07,10,07,16.50
2014,10,07,10,08,16.60
2014,10,07,10,09,16.70
2014,10,07,10,10,16.80
2014,10,07,10,11,16.80
2014,10,07,10,12,16.90
2014,10,07,10,13,17.00
2014,10,07,10,14,17.10
2014,10,07,10,15,17.10
2014,10,07,10,16,17.20
2014,10,07,10,17,17.20
2014,10,07,10,18,17.20
2014,10,07,10,19,17.30
2014,10,07,10,20,17.30
2014,10,07,10,21,17.30
2014,10,07,10,22,17.30
2014,10,07,10,23,17.40
2014,10,07,10,24,17.40
2014,10,07,10,25,17.40
2014,10,07,10,26,17.40
2014,10,07,10,27,17.50
2014,10,07,10,28,17.50
2014,10,07,10,29,17.50
2014,10,07,10,30,17.60
2014,10,07,10,31,17.60
2014,10,07,10,32,17.60
2014,10,07,10,33,17.60
2014,10,07,10,34,17.60
2014,10,07,10,35,17.60
2014,10,07,10,36,17.60
2014,10,07,10,37,17.60
2014,10,07,10,38,17.60
2014,10,07,10,39,17.60
2014,10,07,10,40,17.70
2014,10,07,10,41,17.70
2014,10,07,10,42,17.70
2014,10,07,10,43,17.70
2014,10,07,10,44,17.80
2014,10,07,10,45,17.80
2014,10,07,10,46,17.80
2014,10,07,10,47,17.80
2014,10,07,10,48,17.90
2014,10,07,10,49,17.90
2014,10,07,10,50,17.90
2014,10,07,10,51,18.00
2014,10,07,10,52,18.00
2014,10,07,10,53,18.00
2014,10,07,10,54,18.00
2014,10,07,10,55,18.00
2014,10,07,10,56,18.10
2014,10,07,10,57,18.10
2014,10,07,10,58,18.10
2014,10,07,10,59,18.10
2014,10,07,11,00,18.20
2014,10,07,11,01,18.20
2014,10,07,11,02,18.20
2014,10,07,11,03,18.30
2014,10,07,11,04,18.30
2014,10,07,11,05,18.30
2014,10,07,11,06,18.30
2014,10,07,11,07,18.30
2014,10,07,11,08,18.30
2014,10,07,11,09,18.30
2014,10,07,11,10,18.40
2014,10,07,11,11,18.40
2014,10,07,11,12,18.40
2014,10,07,11,13,18.40
2014,10,07,11,14,18.50
2014,10,07,11,15,18.50
2014,10,07,11,16,18.60
2014,10,07,11,17,18.60
2014,10,07,11,18,18.60
2014,10,07,11,19,18.70
2014,10,07,11,20,18.60
2014,10,07,11,21,18.60
2014,10,07,11,22,18.60
2014,10,07,11,23,18.60
2014,10,07,11,24,18.60
2014,10,07,11,25,18.60
2014,10,07,11,26,18.60
2014,10,07,11,27,18.50
2014,10,07,11,28,18.50
2014,10,07,11,29,18.50
2014,10,07,11,30,18.50
2014,10,07,11,31,18.50
2014,10,07,11,32,18.50
2014,10,07,11,33,18.50
2014,10,07,11,34,18.50
2014,10,07,11,35,18.50
2014,10,07,11,36,18.50
2014,10,07,11,37,18.50
2014,10,07,11,38,18.50
2014,10,07,11,39,18.50
2014,10,07,11,40,18.50
2014,10,07,11,41,18.50
2014,10,07,11,42,18.60
2014,10,07,11,43,18.60
2014,10,07,11,44,18.60
2014,10,07,11,45,18.60
2014,10,07,11,46,18.60
2014,10,07,11,47,18.60
2014,10,07,11,48,18.60
2014,10,07,11,49,18.60
2014,10,07,11,50,18.60
2014,10,07,11,51,18.60
2014,10,07,11,52,18.70
2014,10,07,11,53,18.70
2014,10,07,11,54,18.70
2014,10,07,11,55,18.70
2014,10,07,11,56,18.80
2014,10,07,11,57,18.80
2014,10,07,11,58,18.90
2014,10,07,11,59,18.90
2014,10,07,12,00,18.90
2014,10,07,12,01,18.90
2014,10,07,12,02,18.90
2014,10,07,12,03,18.90
2014,10,07,12,04,18.90
2014,10,07,12,05,18.90
2014,10,07,12,06,18.80
2014,10,07,12,07,18.80
2014,10,07,12,08,18.80
2014,10,07,12,09,18.80
2014,10,07,12,10,18.80
2014,10,07,12,11,18.80
2014,10,07,12,12,18.90
2014,10,07,12,13,18.90
2014,10,07,12,14,18.90
2014,10,07,12,15,18.90
2014,10,07,12,16,18.90
2014,10,07,12,17,18.90
2014,10,07,12,18,18.80
2014,10,07,12,19,18.80
2014,10,07,12,20,18.80
2014,10,07,12,21,18.80
2014,10,07,12,22,18.80
2014,10,07,12,23,18.80
2014,10,07,12,24,18.80
2014,10,07,12,25,18.80
2014,10,07,12,26,18.80
2014,10,07,12,27,18.90
2014,10,07,12,28,18.90
2014,10,07,12,29,18.90
2014,10,07,12,30,18.80
2014,10,07,12,31,18.80
2014,10,07,12,32,18.80
2014,10,07,12,33,18.80
2014,10,07,12,34,18.80
2014,10,07,12,35,18.80
2014,10,07,12,36,18.80
2014,10,07,12,37,18.90
2014,10,07,12,38,18.90
2014,10,07,12,39,18.90
2014,10,07,12,40,18.90
2014,10,07,12,41,18.90
2014,10,07,12,42,19.00
2014,10,07,12,43,19.10
2014,10,07,12,44,19.10
2014,10,07,12,45,19.20
2014,10,07,12,46,19.20
2014,10,07,12,47,19.30
2014,10,07,12,48,19.30
2014,10,07,12,49,19.30
2014,10,07,12,50,19.30
2014,10,07,12,51,19.40
2014,10,07,12,52,19.40
2014,10,07,12,53,19.40
2014,10,07,12,54,19.40
2014,10,07,12,55,19.50
2014,10,07,12,56,19.60
2014,10,07,12,57,19.60
2014,10,07,12,58,19.60
2014,10,07,12,59,19.60
2014,10,07,13,00,19.60
2014,10,07,13,01,19.60
2014,10,07,13,02,19.60
2014,10,07,13,03,19.60
2014,10,07,13,04,19.70
2014,10,07,13,05,19.70
2014,10,07,13,06,19.70
2014,10,07,13,07,19.80
2014,10,07,13,08,19.80
2014,10,07,13,09,19.90
2014,10,07,13,10,19.90
2014,10,07,13,11,20.00
2014,10,07,13,12,20.00
2014,10,07,13,13,20.20
2014,10,07,13,14,20.30
2014,10,07,13,15,20.30
2014,10,07,13,16,20.30
2014,10,07,13,17,20.30
2014,10,07,13,18,20.30
2014,10,07,13,19,20.10
2014,10,07,13,20,19.80
2014,10,07,13,21,19.70
2014,10,07,13,22,19.60
2014,10,07,13,23,19.50
2014,10,07,13,24,19.40
2014,10,07,13,25,19.30
2014,10,07,13,26,19.20
2014,10,07,13,27,19.20
2014,10,07,13,28,19.20
2014,10,07,13,29,19.10
2014,10,07,13,30,19.00
2014,10,07,13,31,18.90
2014,10,07,13,32,18.90
2014,10,07,13,33,18.80
2014,10,07,13,34,18.80
2014,10,07,13,35,18.70
2014,10,07,13,36,18.70
2014,10,07,13,37,18.70
2014,10,07,13,38,18.70
2014,10,07,13,39,18.70
2014,10,07,13,40,18.70
2014,10,07,13,41,18.60
2014,10,07,13,42,18.60
2014,10,07,13,43,18.60
2014,10,07,13,44,18.60
2014,10,07,13,45,18.60
2014,10,07,13,46,18.60
2014,10,07,13,47,18.60
2014,10,07,13,48,18.70
2014,10,07,13,49,18.70
2014,10,07,13,50,18.80
2014,10,07,13,51,18.80
2014,10,07,13,52,18.80
2014,10,07,13,53,18.80
2014,10,07,13,54,18.90
2014,10,07,13,55,18.80
2014,10,07,13,56,18.80
2014,10,07,13,57,18.80
2014,10,07,13,58,18.70
2014,10,07,13,59,18.70
2014,10,07,14,00,18.70
2014,10,07,14,01,18.70
2014,10,07,14,02,18.80
2014,10,07,14,03,18.90
2014,10,07,14,04,18.90
2014,10,07,14,05,19.00
2014,10,07,14,06,19.10
2014,10,07,14,07,19.10
2014,10,07,14,08,19.20
2014,10,07,14,09,19.30
2014,10,07,14,10,19.30
2014,10,07,14,11,19.20
2014,10,07,14,12,19.20
2014,10,07,14,13,19.20
2014,10,07,14,14,19.10
2014,10,07,14,15,19.10
2014,10,07,14,16,19.00
2014,10,07,14,17,19.00
2014,10,07,14,18,19.10
2014,10,07,14,19,19.10
2014,10,07,14,20,19.20
2014,10,07,14,21,19.30
2014,10,07,14,22,19.30
2014,10,07,14,23,19.40
2014,10,07,14,24,19.50
2014,10,07,14,25,19.50
2014,10,07,14,26,19.60
2014,10,07,14,27,19.60
2014,10,07,14,28,19.50
2014,10,07,14,29,19.50
2014,10,07,14,30,19.40
2014,10,07,14,31,19.40
2014,10,07,14,32,19.30
2014,10,07,14,33,19.30
2014,10,07,14,34,19.40
2014,10,07,14,35,19.40
2014,10,07,14,36,19.50
2014,10,07,14,37,19.50
2014,10,07,14,38,19.50
2014,10,07,14,39,19.50
2014,10,07,14,40,19.60
2014,10,07,14,41,19.60
2014,10,07,14,42,19.70
2014,10,07,14,43,19.70
2014,10,07,14,44,19.70
2014,10,07,14,45,19.70
2014,10,07,14,46,19.70
2014,10,07,14,47,19.60
2014,10,07,14,48,19.60
2014,10,07,14,49,19.60
2014,10,07,14,50,19.50
2014,10,07,14,51,19.50
2014,10,07,14,52,19.40
2014,10,07,14,53,19.30
2014,10,07,14,54,19.30
2014,10,07,14,55,19.30
2014,10,07,14,56,19.40
2014,10,07,14,57,19.40
2014,10,07,14,58,19.50
2014,10,07,14,59,19.60
2014,10,07,15,00,19.50
2014,10,07,15,01,19.50
2014,10,07,15,02,19.50
2014,10,07,15,03,19.50
2014,10,07,15,04,19.50
2014,10,07,15,05,19.60
2014,10,07,15,06,19.60
2014,10,07,15,07,19.60
2014,10,07,15,08,19.60
2014,10,07,15,09,19.60
2014,10,07,15,10,19.60
2014,10,07,15,11,19.50
2014,10,07,15,12,19.50
2014,10,07,15,13,19.60
2014,10,07,15,14,19.60
2014,10,07,15,15,19.60
2014,10,07,15,16,19.60
2014,10,07,15,17,19.60
2014,10,07,15,18,19.60
2014,10,07,15,19,19.60
2014,10,07,15,20,19.60
2014,10,07,15,21,19.70
2014,10,07,15,22,19.60
2014,10,07,15,23,19.60
2014,10,07,15,24,19.50
2014,10,07,15,25,19.50
2014,10,07,15,26,19.60
2014,10,07,15,27,19.60
2014,10,07,15,28,19.70
2014,10,07,15,29,19.80
2014,10,07,15,30,19.90
2014,10,07,15,31,19.90
2014,10,07,15,32,20.00
2014,10,07,15,33,20.00
2014,10,07,15,34,20.00
2014,10,07,15,35,20.00
2014,10,07,15,36,19.90
2014,10,07,15,37,19.90
2014,10,07,15,38,19.80
2014,10,07,15,39,19.80
2014,10,07,15,40,19.80
2014,10,07,15,41,19.80
2014,10,07,15,42,19.80
2014,10,07,15,43,19.80
2014,10,07,15,44,19.80
2014,10,07,15,45,19.80
2014,10,07,15,46,19.80
2014,10,07,15,47,19.80
2014,10,07,15,48,19.80
2014,10,07,15,49,19.70
2014,10,07,15,50,19.70
2014,10,07,15,51,19.70
2014,10,07,15,52,19.70
2014,10,07,15,53,19.70
2014,10,07,15,54,19.60
2014,10,07,15,55,19.60
2014,10,07,15,56,19.60
2014,10,07,15,57,19.60
2014,10,07,15,58,19.60
2014,10,07,15,59,19.70
2014,10,07,16,00,19.70
2014,10,07,16,01,19.70
2014,10,07,16,02,19.70
2014,10,07,16,03,19.70
2014,10,07,16,04,19.70
2014,10,07,16,05,19.60
2014,10,07,16,06,19.60
2014,10,07,16,07,19.60
2014,10,07,16,08,19.50
2014,10,07,16,09,19.50
2014,10,07,16,10,19.50
2014,10,07,16,11,19.40
2014,10,07,16,12,19.30
2014,10,07,16,13,19.30
2014,10,07,16,14,19.10
2014,10,07,16,15,19.00
2014,10,07,16,16,18.90
2014,10,07,16,17,18.90
2014,10,07,16,18,18.80
2014,10,07,16,19,18.80
2014,10,07,16,20,18.80
2014,10,07,16,21,18.80
2014,10,07,16,22,18.80
2014,10,07,16,23,18.80
2014,10,07,16,24,18.80
2014,10,07,16,25,18.80
2014,10,07,16,26,18.70
2014,10,07,16,27,18.70
2014,10,07,16,28,18.70
2014,10,07,16,29,18.60
2014,10,07,16,30,18.60
2014,10,07,16,31,18.50
2014,10,07,16,32,18.50
2014,10,07,16,33,18.40
2014,10,07,16,34,18.40
2014,10,07,16,35,18.40
2014,10,07,16,36,18.40
2014,10,07,16,37,18.40
2014,10,07,16,38,18.40
2014,10,07,16,39,18.40
2014,10,07,16,40,18.40
2014,10,07,16,41,18.40
2014,10,07,16,42,18.40
2014,10,07,16,43,18.40
2014,10,07,16,44,18.40
2014,10,07,16,45,18.40
2014,10,07,16,46,18.40
2014,10,07,16,47,18.40
2014,10,07,16,48,18.40
2014,10,07,16,49,18.40
2014,10,07,16,50,18.40
2014,10,07,16,51,18.30
2014,10,07,16,52,18.30
2014,10,07,16,53,18.30
2014,10,07,16,54,18.30
2014,10,07,16,55,18.30
2014,10,07,16,56,18.30
2014,10,07,16,57,18.30
2014,10,07,16,58,18.30
2014,10,07,16,59,18.30
2014,10,07,17,00,18.30
2014,10,07,17,01,18.30
2014,10,07,17,02,18.30
2014,10,07,17,03,18.40
2014,10,07,17,04,18.40
2014,10,07,17,05,18.40
2014,10,07,17,06,18.40
2014,10,07,17,07,18.40
2014,10,07,17,08,18.40
2014,10,07,17,09,18.40
2014,10,07,17,10,18.40
2014,10,07,17,11,18.40
2014,10,07,17,12,18.40
2014,10,07,17,13,18.40
2014,10,07,17,14,18.40
2014,10,07,17,15,18.40
2014,10,07,17,16,18.40
2014,10,07,17,17,18.40
2014,10,07,17,18,18.50
2014,10,07,17,19,18.50